Hobbs, NM

10:02 AM MDT on September 26, 2017 (GMT -0600)
Lea County Regional

Weather History for KHOB - September, 2013

Change the Weather History Date:

Sunday, September 8, 2013

  Actual Average Record
Temperature  
Mean Temperature 78 °F -  
Max Temperature 89 °F 87 °F 96 °F (2001)
Min Temperature 66 °F 61 °F 50 °F (1952)
Cooling Degree Days 12    
Growing Degree Days 28 (Base 50)    
Moisture  
Dew Point 53 °F    
Average Humidity 47    
Maximum Humidity 64    
Minimum Humidity 24    
Precipitation  
Precipitation 0.00 in - - ()
Sea Level Pressure  
Sea Level Pressure 30.05 in    
Wind  
Wind Speed 3 mph (ESE)    
Max Wind Speed 17 mph    
Max Gust Speed 23 mph    
Visibility 10 miles    
Events      
Averages and records for this station are not official NWS values.
T = Trace of Precipitation, MM = Missing Value Source: NWS Daily Summary

Daily Weather History Graph

Daily Weather History Graph

Search for Another Location

Airport or City:

Trip Planner

Search our weather history database for the weather conditions in past years. The results will help you decide how hot, cold, wet, or windy it might be!

Date:

Astronomy

Sep. 08, 2013 Rise Set
Actual Time 6:32 AM MDT 7:07 PM MDT
Civil Twilight 6:07 AM MDT 7:32 PM MDT
Nautical Twilight 5:38 AM MDT 8:01 PM MDT
Astronomical Twilight 5:08 AM MDT 8:31 PM MDT
Moon 9:38 AM MDT (9/8) 9:00 PM MDT (9/8)
Length of Visible Light 13h 25m
Length of Day
12h 35m
Waxing Crescent, 11% of the Moon is Illuminated
Sep 8
Waxing Crescent
Sep 12
First Quarter
Sep 19
Full
Sep 26
Last Quarter
Oct 4
New

Hourly Weather History & Observations

Time (MDT) Temp. Heat Index Dew Point Humidity Pressure Visibility Wind Dir Wind Speed Gust Speed Precip Events Conditions
12:15 AM 71.6 °F - 53.6 °F 53% 30.11 in 10.0 mi Calm Calm - N/A   Partly Cloudy
12:35 AM 71.6 °F - 53.6 °F 53% 30.11 in 10.0 mi Calm Calm - N/A   Clear
12:55 AM 71.6 °F - 53.6 °F 53% 30.11 in 10.0 mi Calm Calm - N/A   Clear
1:15 AM 71.6 °F - 53.6 °F 53% 30.11 in 10.0 mi Calm Calm - N/A   Clear
1:35 AM 68.0 °F - 53.6 °F 60% 30.10 in 10.0 mi Calm Calm - N/A   Clear
1:55 AM 68.0 °F - 53.6 °F 60% 30.10 in 10.0 mi Calm Calm - N/A   Clear
2:15 AM 68.0 °F - 51.8 °F 56% 30.10 in 10.0 mi Calm Calm - N/A   Clear
2:35 AM 68.0 °F - 51.8 °F 56% 30.09 in 10.0 mi Calm Calm - N/A   Clear
2:55 AM 68.0 °F - 51.8 °F 56% 30.09 in 10.0 mi Calm Calm - N/A   Clear
3:15 AM 68.0 °F - 51.8 °F 56% 30.09 in 10.0 mi Calm Calm - N/A   Clear
3:35 AM 68.0 °F - 51.8 °F 56% 30.09 in 10.0 mi Calm Calm - N/A   Clear
3:55 AM 66.2 °F - 51.8 °F 60% 30.08 in 10.0 mi Calm Calm - N/A   Clear
4:15 AM 66.2 °F - 51.8 °F 60% 30.08 in 10.0 mi Calm Calm - N/A   Clear
4:35 AM 66.2 °F - 51.8 °F 60% 30.08 in 10.0 mi Calm Calm - N/A   Clear
4:55 AM 66.2 °F - 51.8 °F 60% 30.08 in 10.0 mi Calm Calm - N/A   Clear
5:50 AM 66.2 °F - 51.8 °F 60% 30.08 in 10.0 mi Calm Calm - N/A   Clear
6:50 AM 66.2 °F - 53.6 °F 64% 30.10 in 10.0 mi Calm Calm - N/A   Clear
7:50 AM 71.6 °F - 55.4 °F 57% 30.10 in 10.0 mi Calm Calm - N/A   Clear
8:50 AM 75.2 °F - 59.0 °F 57% 30.10 in 10.0 mi SE 5.8 mph - N/A   Clear
9:50 AM 80.6 °F 81.1 °F 59.0 °F 48% 30.10 in 10.0 mi SSE 5.8 mph - N/A   Clear
10:50 AM 82.4 °F 82.0 °F 57.2 °F 42% 30.08 in 10.0 mi SE 6.9 mph - N/A   Scattered Clouds
11:50 AM 82.4 °F 81.7 °F 55.4 °F 39% 30.07 in 10.0 mi SE 9.2 mph 16.1 mph N/A   Mostly Cloudy
12:50 PM 84.2 °F 83.0 °F 55.4 °F 37% 30.05 in 10.0 mi East 9.2 mph - N/A   Mostly Cloudy
1:50 PM 87.8 °F 86.1 °F 55.4 °F 33% 30.03 in 10.0 mi SE 5.8 mph - N/A   Mostly Cloudy
2:50 PM 87.8 °F 85.7 °F 53.6 °F 31% 30.00 in 10.0 mi East 17.3 mph - N/A   Mostly Cloudy
3:50 PM 87.8 °F - 50.0 °F 27% 29.98 in 10.0 mi East 16.1 mph - N/A   Scattered Clouds
4:50 PM 89.6 °F - 48.2 °F 24% 29.96 in 10.0 mi East 15.0 mph 19.6 mph N/A   Scattered Clouds
5:45 PM 87.8 °F - 48.2 °F 25% 29.96 in 10.0 mi ENE 15.0 mph 18.4 mph N/A   Partly Cloudy
6:15 PM 84.2 °F - 50.0 °F 30% 29.96 in 10.0 mi ESE 15.0 mph 23.0 mph N/A   Clear
6:35 PM 84.2 °F - 50.0 °F 30% 29.96 in 10.0 mi East 13.8 mph - N/A   Clear
6:55 PM 84.2 °F - 50.0 °F 30% 29.96 in 10.0 mi East 12.7 mph - N/A   Clear
7:15 PM 82.4 °F - 50.0 °F 32% 29.97 in 10.0 mi East 9.2 mph - N/A   Clear
7:35 PM 80.6 °F - 50.0 °F 34% 29.98 in 10.0 mi East 6.9 mph - N/A   Clear
7:55 PM 78.8 °F - 50.0 °F 36% 29.98 in 10.0 mi Calm Calm - N/A   Clear
8:15 PM 77.0 °F - 48.2 °F 36% 30.00 in 10.0 mi Calm Calm - N/A   Clear
8:35 PM 77.0 °F - 50.0 °F 39% 30.01 in 10.0 mi SSE 5.8 mph - N/A   Clear
8:55 PM 77.0 °F - 50.0 °F 39% 30.01 in 10.0 mi Calm Calm - N/A   Clear
9:15 PM 75.2 °F - 53.6 °F 47% 30.02 in 10.0 mi Calm Calm - N/A   Partly Cloudy
9:35 PM 73.4 °F - 53.6 °F 50% 30.02 in 10.0 mi Calm Calm - N/A   Partly Cloudy
9:55 PM 73.4 °F - 55.4 °F 53% 30.03 in 10.0 mi Calm Calm - N/A   Clear
10:15 PM 73.4 °F - 55.4 °F 53% 30.03 in 10.0 mi Calm Calm - N/A   Clear
10:35 PM 73.4 °F - 55.4 °F 53% 30.04 in 10.0 mi SSE 9.2 mph - N/A   Clear
10:55 PM 75.2 °F - 57.2 °F 53% 30.04 in 10.0 mi SE 11.5 mph - N/A   Clear
11:15 PM 73.4 °F - 57.2 °F 57% 30.04 in 10.0 mi SSE 6.9 mph - N/A   Clear
11:35 PM 73.4 °F - 57.2 °F 57% 30.04 in 10.0 mi SE 6.9 mph - N/A   Clear
11:55 PM 71.6 °F - 57.2 °F 60% 30.04 in 10.0 mi Calm Calm - N/A   Clear